Volver al catálogo

CZ-6A DEB

ActivoSSO
NORAD 54407·DEBRIS·🇨🇳 China

Lanzado Nov 11, 2022 desde Taiyuan Satellite Launch Center

Loading…

Próximos Pases (próximas 24 horas)

TLE

ActualizadoSource: Space-Track

Época: Sep 13, 2026, 23:39 UTC

1 54407U 22151EF  26256.98542438  .00001394  00000-0  64524-3 0  9996
2 54407  98.7732 264.1670 0044385  74.3917 286.2152 14.21940796198310

Sigue CZ-6A DEB en tiempo real con AllMySat

Download on the App Store